Weather History for Phnom Penh, Cambodia

Change the Weather History Date:

Tuesday, March 26, 2013

  Actual Average Record
Temperature  
Mean Temperature 90 °F -  
Max Temperature 100 °F 92 °F 100 °F (2004)
Min Temperature 80 °F 78 °F 75 °F (2003)
Cooling Degree Days 25    
Growing Degree Days 40 (Base 50)    
Moisture  
Dew Point 72 °F    
Average Humidity 56    
Maximum Humidity 84    
Minimum Humidity 37    
Precipitation  
Precipitation 0.00 in - - ()
Sea Level Pressure  
Sea Level Pressure 29.72 in    
Wind  
Wind Speed 7 mph ()    
Max Wind Speed 15 mph    
Max Gust Speed -    
Visibility 5.8 miles    
Events      
Averages and records for this station are not official NWS values.
T = Trace of Precipitation, MM = Missing Value Source: Averaged Metar Reports

Daily Weather History Graph

Daily Weather History Graph

Search for Another Location

Airport:

Trip Planner

Search our weather history database for the weather conditions in past years. The results will help you decide how hot, cold, wet, or windy it might be!

Date:

Astronomy

Mar. 26, 2013 Rise Set
Actual Time 6:01 AM ICT 6:11 PM ICT
Civil Twilight 5:40 AM ICT 6:32 PM ICT
Nautical Twilight 5:15 AM ICT 6:57 PM ICT
Astronomical Twilight 4:50 AM ICT 7:21 PM ICT
Moon 5:16 PM ICT (3/26) 4:50 AM ICT (3/26)
Length of Visible Light 12h 52m
Length of Day
12h 10m
Waxing Gibbous, 98% of the Moon is Illuminated
Mar 26
Waxing Gibbous
Mar 27
Full
Apr 3
Last Quarter
Apr 10
New
Apr 18
First Quarter

Hourly Weather History & Observations

Time (ICT) Temp. Heat Index Dew Point Humidity Pressure Visibility Wind Dir Wind Speed Gust Speed Precip Events Conditions
12:00 AM 84.2 °F 89.6 °F 71.6 °F 66% 29.71 in 5.6 mi South 5.8 mph - N/A   Partly Cloudy
12:30 AM 84.2 °F 89.6 °F 71.6 °F 66% 29.71 in 5.6 mi South 3.5 mph - N/A   Partly Cloudy
1:00 AM 82.4 °F 87.2 °F 71.6 °F 70% 29.68 in 5.6 mi SSE 3.5 mph - N/A   Partly Cloudy
6:00 AM 80.6 °F 86.2 °F 75.2 °F 84% 29.71 in 5.0 mi SSE 6.9 mph - N/A   Unknown
6:30 AM 80.6 °F 86.2 °F 75.2 °F 84% 29.74 in 5.0 mi SSE 8.1 mph - N/A   Unknown
7:00 AM 82 °F - 78 °F 83% 29.78 in 6 mi SE 4.5 mph - -   Scattered Clouds
7:00 AM 82.4 °F 90.9 °F 77.0 °F 84% 29.74 in 5.6 mi SSE 9.2 mph - N/A   Unknown
7:30 AM 82.4 °F 90.9 °F 77.0 °F 84% 29.77 in 5.6 mi South 8.1 mph - N/A   Unknown
8:00 AM 84.2 °F 94.1 °F 77.0 °F 79% 29.77 in - South 10.4 mph - N/A   Clear
8:30 AM 87.8 °F 99.7 °F 77.0 °F 70% 29.80 in - South 12.7 mph - N/A   Clear
9:00 AM 89.6 °F 99.8 °F 75.2 °F 62% 29.80 in - South 13.8 mph - N/A   Clear
9:30 AM 91.4 °F 102.5 °F 75.2 °F 59% 29.80 in - South 13.8 mph - N/A   Clear
10:00 AM 91.4 °F 100.1 °F 73.4 °F 55% 29.80 in - South 12.7 mph - N/A   Clear
10:30 AM 93.2 °F 100.5 °F 71.6 °F 49% 29.80 in - SSE 8.1 mph - N/A   Clear
11:00 AM 95.0 °F 101.3 °F 69.8 °F 44% 29.80 in 6.2 mi SSE 9.2 mph - N/A   Scattered Clouds
11:30 AM 95.0 °F 101.3 °F 69.8 °F 44% 29.77 in 6.2 mi SSE 10.4 mph - N/A   Scattered Clouds
12:00 PM 95.0 °F 101.3 °F 69.8 °F 44% 29.74 in 6.2 mi SSE 10.4 mph - N/A   Scattered Clouds
12:30 PM 96.8 °F 103.1 °F 69.8 °F 41% 29.74 in 6.2 mi South 12.7 mph - N/A   Scattered Clouds
1:00 PM 98.6 °F 105.5 °F 69.8 °F 39% 29.71 in 6.2 mi SE 9.2 mph - N/A   Scattered Clouds
1:30 PM 100.4 °F 107.8 °F 69.8 °F 37% 29.68 in 6.2 mi SSE 9.2 mph - N/A   Scattered Clouds
2:00 PM 98.6 °F 104.1 °F 68.0 °F 37% 29.68 in 6.2 mi SE 11.5 mph - N/A   Scattered Clouds
2:30 PM 98.6 °F 105.5 °F 69.8 °F 39% 29.65 in 6.2 mi SE 10.4 mph - N/A   Scattered Clouds
3:00 PM 98.6 °F 105.5 °F 69.8 °F 39% 29.65 in 6.2 mi South 9.2 mph - N/A   Scattered Clouds
3:30 PM 96.8 °F 103.1 °F 69.8 °F 41% 29.62 in 6.2 mi SSE 9.2 mph - N/A   Scattered Clouds
4:00 PM 96.8 °F 103.1 °F 69.8 °F 41% 29.65 in 6.2 mi South 10.4 mph - N/A   Scattered Clouds
4:30 PM 96.8 °F 103.1 °F 69.8 °F 41% 29.65 in 6.2 mi SSE 11.5 mph - N/A   Scattered Clouds
5:00 PM 95.0 °F 101.3 °F 69.8 °F 44% 29.65 in 6.2 mi South 15.0 mph - N/A   Scattered Clouds
5:30 PM 93.2 °F 100.5 °F 71.6 °F 49% 29.65 in 6.2 mi South 12.7 mph - N/A   Scattered Clouds
6:00 PM 93.2 °F 100.5 °F 71.6 °F 49% 29.68 in 6.2 mi SSE 6.9 mph - N/A   Scattered Clouds
6:30 PM 93.2 °F 100.5 °F 71.6 °F 49% 29.68 in 5.6 mi South 8.1 mph - N/A   Partly Cloudy
7:00 PM 93.2 °F 100.5 °F 71.6 °F 49% 29.68 in 5.6 mi West 8.1 mph - N/A   Partly Cloudy
7:30 PM 91.4 °F 98.4 °F 71.6 °F 52% 29.71 in 5.6 mi West 8.1 mph - N/A   Partly Cloudy
8:00 PM 89.6 °F 96.2 °F 71.6 °F 55% 29.74 in 5.6 mi West 5.8 mph - N/A   Partly Cloudy
8:30 PM 89.6 °F 96.2 °F 71.6 °F 55% 29.74 in 5.6 mi SW 5.8 mph - N/A   Partly Cloudy
9:00 PM 89.6 °F 96.2 °F 71.6 °F 55% 29.74 in 5.6 mi West 2.3 mph - N/A   Partly Cloudy
9:30 PM 89.6 °F 96.2 °F 71.6 °F 55% 29.74 in 5.6 mi SW 4.6 mph - N/A   Partly Cloudy
10:00 PM 87.8 °F 95.6 °F 73.4 °F 62% 29.77 in 5.6 mi South 3.5 mph - N/A   Partly Cloudy
10:30 PM 87.8 °F 95.6 °F 73.4 °F 62% 29.77 in 5.6 mi South 4.6 mph - N/A   Partly Cloudy
11:30 PM 87.8 °F 95.6 °F 73.4 °F 62% 29.77 in 5.6 mi SSE 9.2 mph - N/A   Partly Cloudy